Regional Weather Roundup
Issued by NWS Charleston, SC

Current Version | Previous Version | Graphics & Text | Print | Product List | Glossary On
Versions: 1 2 3 4 5 6 7 8 9 10 11 12 13 14 15 16 17 18 19 20 21 22 23 24 25 26 27 28 29 30 31 32 33 34 35 36 37 38 39 40 41 42 43 44 45 46 47 48 49 50
000 ASUS42 KCHS 010526 RWRCHS REGIONAL WEATHER ROUNDUP NATIONAL WEATHER SERVICE CHARLESTON SC 1200 AM EST SUN MAR 01 2015 NOTE: "FAIR" INDICATES FEW OR NO CLOUDS BELOW 12,000 FEET WITH NO SIGNIFICANT WEATHER AND/OR OBSTRUCTIONS TO VISIBILITY. NOT ALL STATIONS ARE QUALITY CONTROLLED BY THE NATIONAL WEATHER SERVICE. USE DATA WITH CAUTION...ESPECIALLY DEWPOINT OBSERVATIONS. SCZ027-030-031-034>040-042>050-010600- ...SOUTHEAST SOUTH CAROLINA... CITY SKY/WX TMP DP RH WIND PRES REMARKS N CHARLESTON CLOUDY 44 32 62 NE9 30.56F WATERFRONT PRK NOT AVBL MOUNT PLEASANT CLOUDY 45 32 61 NE6 30.56F PINOPOLIS N/A 45 32 61 NE8 30.50F MONCKS CORNER LGT RAIN 43 32 65 NE9 30.58F SUMMERVILLE LGT RAIN 43 34 70 NE7 30.57F BEAUFORT MCAS LGT RAIN 44 37 76 NE9 30.55S BEAUFORT ARPT CLOUDY 45 37 76 NE13 30.53F HILTON HEAD IS CLOUDY 45 39 81 N12 30.53F WALTERBORO CLOUDY 45 36 70 N3 30.57S ALLENDALE CLOUDY 43 37 81 NE7G13 30.56F ...SOUTHERN MIDLANDS AND PEE DEE... CITY SKY/WX TMP DP RH WIND PRES REMARKS GEORGETOWN NOT AVBL KINGSTREE NOT AVBL ORANGEBURG CLOUDY 44 27 51 NE8 30.60S BARNWELL CLOUDY 45 34 65 NE8 30.58F AIKEN CLOUDY 39 36 87 NE9 30.61F WCI 33 MANNING RAIN 41 32 70 NE3 30.60S COLUMBIA LGT RAIN 42 32 67 NE5 30.61F SUMTER LGT RAIN 38 31 78 NE8 30.60S WCI 32 FLORENCE LGT RAIN 38 29 70 NE9 30.62F WCI 31 MYRTLE BEACH CLOUDY 43 25 49 N10 30.62F N MYRTLE BEACH CLOUDY 41 26 55 NE10 30.60F $$ GAZ063-065-086>088-099>101-113>116-118-119-134>141-150-010600- ...SOUTHEAST GEORGIA... CITY SKY/WX TMP DP RH WIND PRES REMARKS SAVANNAH ARPT CLOUDY 43 38 82 NE9 30.53F HUNTER AAF CLOUDY 44 40 86 NE8 30.50F FORT STEWART CLOUDY 44 39 81 NE9 30.49F STATESBORO CLOUDY 42 42 100 NE5 30.54F SYLVANIA CLOUDY 42 40 93 NE8 30.55S CLAXTON DRIZZLE 43 41 93 NE9 30.52F ...CSRA...CENTRAL AND FAR SOUTHEAST GEORGIA... CITY SKY/WX TMP DP RH WIND PRES REMARKS THOMSON CLOUDY 43 39 85 NE7 30.62F AUGUSTA-BUSH CLOUDY 42 35 76 NE7 30.60F AUGUSTA-DANIEL LGT RAIN 43 35 73 NE8 30.58F SWAINSBORO DRIZZLE 45 41 87 NE5 30.54F VIDALIA DRIZZLE 43 43 100 NE12 30.53S EASTMAN HVY RAIN 43 43 100 NE8 30.56S HAZLEHURST CLOUDY 45 45 100 NE5 30.52R FOG ALMA CLOUDY 43 41 93 NE3 30.50F WAYCROSS CLOUDY 47 45 90 E7 30.49F JESUP CLOUDY 46 43 87 E8 30.50F BAXLEY CLOUDY 45 43 93 NE3 30.51S BRUNSWICK CLOUDY 48 45 87 NE14 30.48S SAINT SIMONS CLOUDY 48 45 89 N18G26 30.46F $$ SCZ027-028-034-036>038-045-046-048>050-GAZ119-141-010600- ...LAKE AND SUPPLEMENTAL COASTAL OBSERVATIONS... STATION/POSITION TIME TEMP WIND PRES WAVE SWELL AIR SEA DIR/SP/G HT/PER HT/PER/DIR (UTC) (F) (DEG/KT/KT) (MB) (FT/S) (FT/S/D) UPR LAKE MARION NOT AVBL WINYAH BAY 0400 43 50/ 12 1035.0S LAKE MURRAY 0500 41 40/ 2/ 5 1035.9F ACE BASIN NERRS NOT AVBL FORT PULASKI 0500 45 49 30/ 15/ 19 1033.8F SAPELO ISLAND 0500 47 30/ 15 1032.0S $$ ANZ835-935-AMZ111-154-330-350-352-354-370-450-454-472-010600- ...C-MAN AND BUOY OBSERVATIONS... STATION/POSITION TIME TEMP WIND PRES WAVE SWELL AIR SEA DIR/SP/G HT/PER HT/PER/DIR (UTC) (F) (DEG/KT/KT) (MB) (FT/S) (FT/S/D) BUOY 41004 0450 58 68 50/ 25/ 31 1032.0F 10/ 9 5/ 9 BUOY 41008 0450 52 52 40/ 19/ 23 1031.4F 9/ 7 3/ 90/11 FOLLY BEACH CMAN 0500 44 30/ 19/ 21 1034.9F CAPERS NEARSHORE NOT AVBL FRIPP NEARSHORE 0400 47 60/ 23/ 27 1032.1F STATION/POSITION TIME TEMP WIND PRES WAVE SWELL AIR SEA DIR/SP/G HT/PER HT/PER/DIR (UTC) (F) (DEG/KT/KT) (MB) (FT/S) (FT/S/D) 5E ST. MARYS GA 0421 52 N/A 7/ 8 2/ 90/11 FRYING PAN BUOY 0450 51 62 50/ 21/ 27 1034.9F 9/ 7 BUOY 41025 NOT AVBL CAPE LOOKOUT NC 0500 36 20/ 16/ 20 1037.1F BUOY 41002 0450 65 70 70/ 23/ 27 1033.5F 11/ 9 7/ 30/ 9 BUOY 41010 0420 71 73 80/ 23/ 29 1029.0R ST AUGUSTINE FL 0500 54 340/ 13/ 15 1030.0F $$

USA.gov is the U.S. government's official web portal to all federal, state and local government web resources and services.